When you browse on this site, cookies collect data to enhance your experience and personalize the content and advertising you see.
Visit our Privacy Policy to learn more. By continuing to use the site, you agree to this use of cookies and data.
  • en France
  • Liste des pays
  • À 7 jours
  • Température de l'eau
  • Carte satellitaire
  • Carte météo
  • Widgets météo
  • user-avatar
    Se connecter

    Météo par heure à Sankt Pölten

    Ce jour, 20 Avril, Samedi

    Heure Température Précipitation Vent Pression Humidité
    00:00 +10°C° 0 mm 1 m/s 745 mmHg 74%
    01:00 +9°C° 0 mm 1 m/s 745 mmHg 75%
    02:00 +9°C° 0 mm 1 m/s 745 mmHg 76%
    03:00 +8°C° 0 mm 1 m/s 745 mmHg 77%
    04:00 +8°C° 0 mm 1 m/s 745 mmHg 78%
    05:00 +9°C° 0 mm 1 m/s 745 mmHg 75%
    06:00 +10°C° 0 mm 1 m/s 745 mmHg 71%
    07:00 +12°C° 0 mm 1 m/s 745 mmHg 67%
    08:00 +14°C° 0 mm 1 m/s 745 mmHg 60%
    09:00 +16°C° 0 mm 2 m/s 745 mmHg 54%
    10:00 +18°C° 0 mm 2 m/s 745 mmHg 47%
    11:00 +19°C° 0 mm 3 m/s 745 mmHg 43%
    12:00 +20°C° 0 mm 3 m/s 744 mmHg 40%
    13:00 +20°C° 0 mm 3 m/s 744 mmHg 36%
    14:00 +20°C° 0 mm 3 m/s 744 mmHg 37%
    15:00 +20°C° 0 mm 3 m/s 743 mmHg 38%
    16:00 +20°C° 0 mm 3 m/s 743 mmHg 39%
    17:00 +17°C° 0 mm 3 m/s 743 mmHg 47%
    18:00 +15°C° 0 mm 2 m/s 742 mmHg 54%
    19:00 +13°C° 0 mm 1 m/s 742 mmHg 61%
    20:00 +12°C° 0 mm 1 m/s 742 mmHg 63%
    21:00 +11°C° 0 mm 1 m/s 743 mmHg 65%
    22:00 +10°C° 0 mm 1 m/s 743 mmHg 67%
    23:00 +10°C° 0 mm 1 m/s 743 mmHg 68%

    Demain, 21 Avril, Dimanche

    Heure Température Précipitation Vent Pression Humidité
    00:00 +9°C° 0 mm 1 m/s 742 mmHg 70%
    01:00 +9°C° 0 mm 1 m/s 742 mmHg 71%
    02:00 +9°C° 0 mm 1 m/s 742 mmHg 72%
    03:00 +8°C° 0 mm 1 m/s 742 mmHg 73%
    04:00 +8°C° 0 mm 1 m/s 741 mmHg 74%
    05:00 +9°C° 0 mm 1 m/s 741 mmHg 71%
    06:00 +10°C° 0 mm 0 m/s 741 mmHg 67%
    07:00 +11°C° 0 mm 0 m/s 741 mmHg 64%
    08:00 +14°C° 0 mm 1 m/s 741 mmHg 57%
    09:00 +16°C° 0 mm 1 m/s 741 mmHg 51%
    10:00 +18°C° 0 mm 2 m/s 740 mmHg 44%
    11:00 +18°C° 0 mm 2 m/s 740 mmHg 43%
    12:00 +19°C° 0 mm 3 m/s 740 mmHg 42%
    13:00 +20°C° 0 mm 3 m/s 739 mmHg 41%
    14:00 +20°C° 0 mm 3 m/s 739 mmHg 42%
    15:00 +19°C° 0 mm 3 m/s 738 mmHg 43%
    16:00 +19°C° 0 mm 4 m/s 738 mmHg 44%
    17:00 +17°C° 0 mm 3 m/s 737 mmHg 51%
    18:00 +15°C° 0 mm 2 m/s 737 mmHg 58%
    19:00 +13°C° 0 mm 2 m/s 737 mmHg 65%
    20:00 +12°C° 0 mm 2 m/s 737 mmHg 68%
    21:00 +10°C° 0 mm 2 m/s 737 mmHg 71%
    22:00 +9°C° 0 mm 2 m/s 737 mmHg 74%
    23:00 +9°C° 0 mm 2 m/s 737 mmHg 75%

    Après-demain, 22 Avril, Lundi

    Heure Température Précipitation Vent Pression Humidité
    00:00 +8°C° 0 mm 2 m/s 737 mmHg 77%
    01:00 +9°C° 0 mm 1 m/s 736 mmHg 78%
    02:00 +8°C° 0 mm 1 m/s 736 mmHg 80%
    03:00 +8°C° 0 mm 1 m/s 736 mmHg 81%
    04:00 +8°C° 0 mm 1 m/s 735 mmHg 82%
    05:00 +9°C° 0 mm 1 m/s 735 mmHg 78%
    06:00 +9°C° 0 mm 2 m/s 735 mmHg 73%
    07:00 +10°C° 0 mm 2 m/s 734 mmHg 69%
    08:00 +13°C° 0 mm 2 m/s 734 mmHg 63%
    09:00 +14°C° 0 mm 3 m/s 734 mmHg 57%
    10:00 +17°C° 0 mm 4 m/s 733 mmHg 51%
    11:00 +17°C° 0 mm 4 m/s 733 mmHg 51%
    12:00 +17°C° 0 mm 5 m/s 732 mmHg 50%
    13:00 +17°C° 0 mm 5 m/s 732 mmHg 50%
    14:00 +17°C° 0 mm 5 m/s 731 mmHg 52%
    15:00 +17°C° 0 mm 5 m/s 731 mmHg 55%
    16:00 +17°C° 0 mm 5 m/s 730 mmHg 57%
    17:00 +15°C° 0 mm 5 m/s 730 mmHg 63%
    18:00 +14°C° 0 mm 5 m/s 730 mmHg 68%
    19:00 +13°C° 0 mm 5 m/s 729 mmHg 74%
    20:00 +12°C° 0 mm 5 m/s 729 mmHg 77%
    21:00 +12°C° 0 mm 4 m/s 729 mmHg 80%
    22:00 +11°C° 0 mm 4 m/s 729 mmHg 83%
    23:00 +11°C° 0 mm 4 m/s 729 mmHg 84%

    23 Avril, Mardi

    Heure Température Précipitation Vent Pression Humidité
    00:00 +10°C° 0 mm 4 m/s 728 mmHg 85%
    01:00 +10°C° 0 mm 4 m/s 728 mmHg 87%
    02:00 +10°C° 0.1 mm 4 m/s 728 mmHg 87%
    03:00 +11°C° 0.1 mm 4 m/s 727 mmHg 87%
    04:00 +11°C° 0.1 mm 4 m/s 727 mmHg 87%
    05:00 +11°C° 0.4 mm 4 m/s 727 mmHg 88%
    06:00 +11°C° 0.4 mm 4 m/s 727 mmHg 88%
    07:00 +11°C° 0.4 mm 4 m/s 726 mmHg 89%
    08:00 +12°C° 0 mm 4 m/s 727 mmHg 83%
    09:00 +14°C° 0 mm 4 m/s 727 mmHg 77%
    10:00 +15°C° 0 mm 4 m/s 727 mmHg 71%
    11:00 +15°C° 0.1 mm 4 m/s 727 mmHg 69%
    12:00 +17°C° 0.1 mm 4 m/s 726 mmHg 67%
    13:00 +17°C° 0.1 mm 4 m/s 726 mmHg 65%
    14:00 +18°C° 0 mm 4 m/s 726 mmHg 63%
    15:00 +19°C° 0 mm 4 m/s 726 mmHg 60%
    16:00 +20°C° 0 mm 4 m/s 726 mmHg 58%
    17:00 +18°C° 0 mm 3 m/s 726 mmHg 65%
    18:00 +16°C° 0 mm 3 m/s 726 mmHg 73%
    19:00 +15°C° 0 mm 2 m/s 726 mmHg 80%
    20:00 +14°C° 0 mm 2 m/s 727 mmHg 83%
    21:00 +13°C° 0 mm 2 m/s 727 mmHg 86%
    22:00 +12°C° 0 mm 2 m/s 728 mmHg 89%
    23:00 +12°C° 0 mm 1 m/s 728 mmHg 90%

    24 Avril, Mercredi

    Heure Température Précipitation Vent Pression Humidité
    00:00 +12°C° 0 mm 1 m/s 728 mmHg 91%
    01:00 +12°C° 0 mm 1 m/s 728 mmHg 92%
    02:00 +11°C° 0 mm 1 m/s 729 mmHg 92%
    03:00 +11°C° 0 mm 1 m/s 729 mmHg 92%
    04:00 +11°C° 0 mm 1 m/s 730 mmHg 93%
    05:00 +12°C° 0 mm 1 m/s 730 mmHg 87%
    06:00 +14°C° 0 mm 1 m/s 731 mmHg 82%
    07:00 +15°C° 0 mm 1 m/s 732 mmHg 77%
    08:00 +19°C° 0 mm 1 m/s 732 mmHg 68%
    09:00 +20°C° 0 mm 0 m/s 733 mmHg 59%
    10:00 +22°C° 0 mm 0 m/s 733 mmHg 50%
    11:00 +25°C° 0 mm 1 m/s 733 mmHg 48%
    12:00 +25°C° 0 mm 1 m/s 733 mmHg 46%
    13:00 +26°C° 0 mm 2 m/s 733 mmHg 45%
    14:00 +25°C° 0 mm 1 m/s 733 mmHg 46%
    15:00 +25°C° 0 mm 1 m/s 733 mmHg 47%
    16:00 +25°C° 0 mm 1 m/s 733 mmHg 49%
    17:00 +23°C° 0 mm 1 m/s 733 mmHg 56%
    18:00 +21°C° 0 mm 1 m/s 733 mmHg 64%
    19:00 +18°C° 0 mm 1 m/s 733 mmHg 72%
    20:00 +16°C° 0 mm 1 m/s 734 mmHg 75%
    21:00 +15°C° 0 mm 1 m/s 734 mmHg 78%
    22:00 +14°C° 0 mm 1 m/s 734 mmHg 81%
    23:00 +14°C° 0 mm 1 m/s 734 mmHg 82%

    25 Avril, Jeudi

    Heure Température Précipitation Vent Pression Humidité
    00:00 +13°C° 0 mm 1 m/s 734 mmHg 84%
    01:00 +13°C° 0 mm 1 m/s 734 mmHg 85%
    02:00 +12°C° 0 mm 1 m/s 734 mmHg 86%
    03:00 +12°C° 0 mm 1 m/s 734 mmHg 87%
    04:00 +12°C° 0 mm 1 m/s 734 mmHg 89%
    05:00 +13°C° 0 mm 1 m/s 734 mmHg 85%
    06:00 +14°C° 0 mm 1 m/s 734 mmHg 82%
    07:00 +15°C° 0 mm 1 m/s 734 mmHg 78%
    08:00 +17°C° 0 mm 2 m/s 734 mmHg 69%
    09:00 +20°C° 0 mm 2 m/s 734 mmHg 60%
    10:00 +23°C° 0 mm 2 m/s 733 mmHg 51%
    11:00 +24°C° 0 mm 3 m/s 733 mmHg 48%
    12:00 +25°C° 0 mm 3 m/s 733 mmHg 44%
    13:00 +27°C° 0 mm 4 m/s 732 mmHg 40%
    14:00 +26°C° 0 mm 4 m/s 732 mmHg 42%
    15:00 +26°C° 0 mm 5 m/s 731 mmHg 44%
    16:00 +26°C° 0 mm 5 m/s 731 mmHg 46%
    17:00 +23°C° 0 mm 5 m/s 730 mmHg 54%
    18:00 +21°C° 0 mm 4 m/s 730 mmHg 62%
    19:00 +19°C° 0 mm 3 m/s 730 mmHg 70%
    20:00 +18°C° 0 mm 3 m/s 730 mmHg 74%
    21:00 +17°C° 0 mm 2 m/s 730 mmHg 77%
    22:00 +16°C° 0 mm 2 m/s 730 mmHg 81%
    23:00 +16°C° 0 mm 2 m/s 730 mmHg 83%
    Voir plus